User: anonymous   Login
Location: Unspecified
(0.0000°N, 0.0000°E)
Time: 10:23:38
(UTC+00:00)
Language:

Azur - Orbit

View from above orbital plane
View from above orbital plane
View from above satellite
View from above satellite

Ground track
Ground track

The orbit data is extracted from the following two-line orbital elements,

1  4221U 69097A   18051.87129806 +.00001858 +00000-0 +93828-4 0  9992
2  4221 102.7008 033.1947 0632404 225.3928 129.3964 14.24347902284583
Epoch (UTC): 20 February 2018 20:54:40
Eccentricity: 0.0632404
inclination: 102.7008°
perigee height: 356 km
apogee height: 1265 km
right ascension of ascending node: 33.1947°
argument of perigee: 225.3928°
revolutions per day: 14.24347902
mean anomaly at epoch: 129.3964°
orbit number at epoch: 28458

The dashed part of the orbit path shows where the satellite is in the earth's shadow,  

DLR